User: anonymous   Login
Location: Dammartin
(48.9032°N, 1.6195°E)
Time: 22:12:07
(UTC+00:00)
Language:

XW-2C - Orbit

View from above orbital plane
View from above orbital plane
View from above satellite
View from above satellite

Ground track
Ground track

The orbit data is extracted from the following two-line orbital elements,

1 40906U 15049H   23333.48533981  .00022486  00000-0  73008-3 0  9996
2 40906  97.4906 341.7488 0008451 307.0976  52.9492 15.31920590453650
Epoch (UTC): 29 November 2023 11:38:53
Eccentricity: 0.0008451
inclination: 97.4906°
perigee height: 464 km
apogee height: 476 km
right ascension of ascending node: 341.7488°
argument of perigee: 307.0976°
revolutions per day: 15.31920590
mean anomaly at epoch: 52.9492°
orbit number at epoch: 45365

The dashed part of the orbit path shows where the satellite is in the earth's shadow,  

DLR